Starlink 30353

operational
NORAD ID: 58113 Int'l Des: 2023-161 Owner: SPXS Country: US Constellation: starlink
LEOCIRCULAR

Über Starlink 30353

Beschreibung wird geladen...

Live-Position

3D-Globus wird geladen...

Nächste Überflüge

Höhenverlauf

Altitude vs Time

uPlot chart will show altitude changes over time

Zweizeiliger Elementsatz

1 58113U 23161S 25347.31062800 .00000157 00000-0 17447-4 0 9992
2 58113 53.1611 206.9665 0001408 92.1708 267.9454 15.30200032121198
Epoch: 13. Dez. 2025 • Age: 22 hours

Aktueller Status

Höhe 477.5 km
Geschwindigkeit 7.63 km/s
Subsatellitenpunkt 36.86°N, 69.31°E
Startdatum 21. Okt. 2023
Alter 2.1 years
Typ internet

Technische Details

Klassifizierung Payload
Masse 730.00 kg
Trockenmasse 700.00 kg
Gesamtmasse 730.00 kg
Länge 0.30 m
Durchmesser 4.10 m
Spannweite 29.00 m
Form Box + pan
Hersteller SPXS
Bus-Typ Starlink V2M
Phasenstatus In Orbit
Besitzer/Staat SPXS/US

Große Konstellationen

Loading constellations...